Voltar ao catálogo

COSMOS 1275 DEB

AtivoPO
NORAD 12710·DEBRIS·🇷🇺 Russia

Lançado Jun 4, 1981 de Plesetsk Cosmodrome

Loading…

Próximas Passagens (próximas 24 horas)

TLE

AtualizadoSource: Space-Track

Época: Sep 14, 2026, 13:27 UTC

1 12710U 81053BE  26257.56102342  .00000889  00000-0  88727-3 0  9993
2 12710  83.0084 196.5139 0115067  97.2830 264.1422 13.73991912242081

Acompanhe COSMOS 1275 DEB em tempo real com AllMySat

Download on the App Store